Terminal Aerodrome Forecast
Issued by NWS

Home | Current Version | Previous Version | Text Only | Print | Product List | Glossary Off
Versions: 1 2 3 4 5 6 7 8 9 10 11 12 13 14 15 16 17 18 19 20 21 22

752
FTUS43 KUNR 130520
TAFGCC
TAF
KGCC 130520Z 1306/1406 17020G28KT P6SM SCT120
     FM130900 22012KT P6SM BKN120
     FM132300 30025G32KT 1SM -SHRA OVC012=

USA.gov is the U.S. government's official web portal to all federal, state and local government web resources and services.